CW4489 Marathon FL US current weather conditions

sailwx.info

Wind from 044 at 1 knots gusting 1

Air temperature 24.4° C
Dewpoint 23.2° C

Last reported at 2014-Oct-22 03:49 UTC.
Time now 2014-Oct-22 04:56 UTC

Location: N 24°44' W 081°02'.
View on Google Maps.

See reports from other nearby stations

  
Tides and Currents Weather Stations Pressure Air Temp Water Temp Dewpoint Dewpoint Depression Visibility Wind Speed Wind Dir Waves Ship Positions
date/time (UTC)wind fromknots sea level pressurealtimeterstation pressurevisibilityair tempwater tempwave heightnotes
2014-Oct-22 03:49 044 1 gusting 1 24.4
2014-Oct-21 19:39 308 0 gusting 0 24.4
2014-Oct-21 19:29 308 24.4
2014-Oct-21 19:19 308 24.4
2014-Oct-21 19:09 308 1 gusting 2 23.9
2014-Oct-21 18:59 329 0 gusting 2 23.9
2014-Oct-21 18:39 298 23.9
2014-Oct-21 18:29 309 0 gusting 2 23.9
2014-Oct-21 18:19 311 2 gusting 2 23.9
2014-Oct-21 18:09 236 23.9
2014-Oct-21 17:49 236 0 gusting 1 23.9
2014-Oct-21 17:39 236 23.9
2014-Oct-21 17:29 236 23.9
2014-Oct-21 16:59 236 24.4
2014-Oct-21 16:49 236 24.4
2014-Oct-21 16:09 236 24.4
2014-Oct-21 15:59 236 24.4
2014-Oct-21 15:49 236 24.4
2014-Oct-21 15:09 107 24.4
2014-Oct-21 14:49 107 23.9
2014-Oct-21 14:39 107 23.9
2014-Oct-21 14:29 156 0 gusting 3 23.9
2014-Oct-21 14:09 114 2 gusting 7 23.9
2014-Oct-21 13:59 138 2 gusting 9 24.4
2014-Oct-21 13:29 146 5 gusting 13 25.0
2014-Oct-21 12:49 072 25.6
2014-Oct-21 12:39 074 0 gusting 0 25.6
2014-Oct-21 12:29 074 0 gusting 2 25.0
2014-Oct-21 12:19 078 25.0
2014-Oct-21 12:09 079 25.0
2014-Oct-21 11:59 112 25.0
2014-Oct-21 11:49 113 25.0
2014-Oct-21 11:29 113 25.0
2014-Oct-21 11:19 113 25.0
2014-Oct-21 11:09 113 25.0
2014-Oct-21 10:59 173 25.0
2014-Oct-21 10:39 173 25.0
2014-Oct-21 10:29 173 25.0
2014-Oct-21 10:19 173 25.6
2014-Oct-21 10:09 173 25.0
2014-Oct-21 09:59 173 25.0
2014-Oct-21 09:39 173 25.0
2014-Oct-21 09:29 173 25.0
2014-Oct-21 09:19 173 25.6
2014-Oct-21 08:59 173 25.6
2014-Oct-21 08:49 173 25.6
2014-Oct-21 08:29 173 25.6
2014-Oct-21 08:19 173 25.6
2014-Oct-21 08:09 173 1 gusting 2 25.6
2014-Oct-21 07:59 190 25.6
2014-Oct-21 07:39 194 1 gusting 5 25.6
2014-Oct-21 07:29 151 0 gusting 5 25.6
2014-Oct-21 07:19 178 1 gusting 5 25.6
2014-Oct-21 07:09 161 0 gusting 4 25.6
2014-Oct-21 06:59 175 1 gusting 6 25.6
2014-Oct-21 06:39 180 25.0
2014-Oct-21 06:29 171 2 gusting 7 25.0
2014-Oct-21 06:19 221 3 gusting 5 25.0
2014-Oct-21 05:59 189 3 gusting 6 25.0
2014-Oct-21 05:49 196 2 gusting 6 24.4
2014-Oct-21 05:29 199 2 gusting 7 25.0
2014-Oct-21 05:19 238 5 gusting 8 25.6
2014-Oct-21 04:59 207 24.4
2014-Oct-21 04:49 207 24.4
2014-Oct-21 04:29 207 23.9
2014-Oct-21 04:19 197 2 gusting 5 23.9
2014-Oct-21 03:59 200 5 gusting 10 23.9
2014-Oct-21 03:49 232 1 gusting 5 23.3
2014-Oct-21 03:39 257 2 gusting 3 23.3
2014-Oct-21 03:29 266 2 gusting 6 23.3
2014-Oct-21 02:39 291 0 gusting 4 23.3
2014-Oct-21 02:29 349 2 gusting 9 23.3
2014-Oct-21 02:19 335 6 gusting 7 23.9
2014-Oct-21 01:59 333 3 gusting 3 23.9
2014-Oct-21 01:49 117 5 gusting 6 24.4
2014-Oct-21 01:29 130 1 gusting 6 24.4
2014-Oct-21 01:19 026 1 gusting 6 24.4
2014-Oct-21 01:09 090 6 gusting 6 24.4
2014-Oct-21 00:59 029 2 gusting 8 23.9
2014-Oct-21 00:49 061 5 gusting 5 24.4
2014-Oct-21 00:19 059 25.0
2014-Oct-20 23:59 084 0 gusting 1 25.6
2014-Oct-20 23:49 097 25.6
2014-Oct-20 23:39 097 26.1
2014-Oct-20 23:19 135 26.1
2014-Oct-20 22:59 104 1 gusting 3 26.1
2014-Oct-20 22:09 137 3 gusting 6 25.6
2014-Oct-20 21:59 147 2 gusting 8 26.1
2014-Oct-20 21:49 106 2 gusting 5 26.1
2014-Oct-20 21:39 123 1 gusting 5 26.1
2014-Oct-20 21:29 122 2 gusting 6 26.1
2014-Oct-20 21:19 146 2 gusting 6 25.6
2014-Oct-20 21:09 107 2 gusting 4 25.6
2014-Oct-20 20:59 116 25.6
2014-Oct-20 20:49 107 0 gusting 2 25.6
2014-Oct-20 20:39 072 0 gusting 3 26.1
2014-Oct-20 20:29 105 0 gusting 4 26.1
2014-Oct-20 20:19 108 1 gusting 5 26.1
2014-Oct-20 20:09 094 1 gusting 6 26.1
2014-Oct-20 19:29 076 2 gusting 7 25.6
2014-Oct-20 19:19 148 5 gusting 6 25.6
2014-Oct-20 19:09 138 2 gusting 8 25.6
2014-Oct-20 18:49 093 2 gusting 5 25.6
2014-Oct-20 18:29 131 26.1
2014-Oct-20 18:09 157 6 gusting 7 26.1
2014-Oct-20 17:42 080 0 gusting 0 25.6
2014-Oct-20 17:29 129 1 gusting 8 25.6
2014-Oct-20 17:19 121 2 gusting 4 25.6
2014-Oct-20 16:39 067 1 gusting 6 27.8
2014-Oct-20 16:29 114 6 gusting 6 28.9
2014-Oct-20 16:19 120 1 gusting 5 30.0
2014-Oct-20 16:09 130 2 gusting 5 30.0
2014-Oct-20 15:59 150 1 gusting 4 30.6
2014-Oct-20 15:49 146 0 gusting 2 30.0
2014-Oct-20 15:39 146 1 gusting 3 30.6
2014-Oct-20 15:29 175 1 gusting 3 31.1
2014-Oct-20 15:19 142 2 gusting 3 30.6
2014-Oct-20 15:09 173 2 gusting 5 30.6
2014-Oct-20 14:59 153 0 gusting 5 30.0
2014-Oct-20 14:29 144 4 gusting 4 28.3
2014-Oct-20 14:09 141 27.2
2014-Oct-20 13:59 144 0 gusting 2 26.7
2014-Oct-20 13:50 144 0 gusting 1 26.7
2014-Oct-20 13:29 144 0 gusting 2 26.1
2014-Oct-20 13:09 144 0 gusting 2 26.1
2014-Oct-20 12:39 140 0 gusting 1 25.6
2014-Oct-20 12:19 140 25.6
2014-Oct-20 12:09 140 25.6
2014-Oct-20 11:59 140 25.6
2014-Oct-20 11:39 140 25.0
2014-Oct-20 11:19 140 25.0
2014-Oct-20 11:09 111 25.0
2014-Oct-20 11:01 115 1 gusting 6 25.0
2014-Oct-20 10:49 159 3 gusting 13 26.1
2014-Oct-20 10:19 103 0 gusting 4 27.2
2014-Oct-20 10:09 086 27.2
2014-Oct-20 09:59 078 1 gusting 3 26.7
2014-Oct-20 09:49 076 26.7
2014-Oct-20 09:29 083 2 gusting 2 26.7
2014-Oct-20 09:19 094 1 gusting 5 26.7
2014-Oct-20 08:59 130 26.7
2014-Oct-20 08:49 115 0 gusting 2 26.7
2014-Oct-20 08:39 110 26.7
2014-Oct-20 08:19 128 1 gusting 3 26.7
2014-Oct-20 08:09 077 26.7
2014-Oct-20 07:59 105 0 gusting 3 26.7
2014-Oct-20 07:49 075 26.7
2014-Oct-20 07:29 069 26.7
2014-Oct-20 07:19 096 26.7
2014-Oct-20 07:09 087 0 gusting 3 26.7
2014-Oct-20 06:59 100 0 gusting 3 26.7
2014-Oct-20 06:49 094 1 gusting 6 26.7
2014-Oct-20 06:39 100 26.7
2014-Oct-20 06:29 053 0 gusting 6 26.7
2014-Oct-20 06:09 088 0 gusting 1 26.1
2014-Oct-20 05:49 086 26.1
2014-Oct-20 05:39 086 26.1
2014-Oct-20 05:19 075 0 gusting 1 26.1
2014-Oct-20 05:09 068 0 gusting 2 26.7
2014-Oct-20 04:49 092 26.7
2014-Oct-20 04:39 080 0 gusting 2 26.7